Regional Weather Roundup
Issued by NWS

Home | Current Version | Previous Version | Text Only | Print | Product List | Glossary Off
Versions: 1 2 3 4 5 6 7 8 9 10 11 12 13 14 15 16 17 18 19 20 21 22 23 24 25 26 27 28 29 30 31 32 33 34 35 36 37 38 39 40 41 42 43 44 45 46 47 48 49 50

000
ASUS43 KDMX 241707
RWRIA

WEATHER ROUNDUP FOR IOWA
NATIONAL WEATHER SERVICE DES MOINES IA
1100 AM CST MON NOV 24 2014

NOTE: "FAIR" INDICATES FEW OR NO CLOUDS BELOW 12,000 FEET WITH NO
SIGNIFICANT WEATHER AND/OR OBSTRUCTIONS TO VISIBILITY.

* - THESE STATIONS ARE NOT NWS STATIONS...THUS NOT UNDER NWS
QUALITY CONTROL.  THEY ALSO DO NOT REPORT WEATHER SUCH
AS PRECIPITATION OR FOG.

IAZ001>003-012>014-020>022-031>034-043>046-241800-
   NORTHWEST IOWA

CITY           SKY/WX    TMP DP  RH WIND       PRES   REMARKS
CARROLL *      MIX PCPN  25  16  68 NW28G35   29.63R WCI   8
CHEROKEE *     CLOUDY    22  15  74 NW16G32   29.65R WCI   9
DENISON *      MIX PCPN  23  16  74 NW24G33   29.64S WCI   7
LE MARS *      CLOUDY    23  16  74 NW22G30   29.70R WCI   8
ORANGE CITY *  FLURRIES  23  14  68 NW25G33   29.65R WCI   7
SHELDON *      FLURRIES  19  14  79 NW24G35   29.63R WCI   2
SIOUX CITY     CLOUDY    25  16  68 NW28G37   29.70R WCI   9
SPENCER        CLOUDY    22  12  65 NW24G35   29.61R WCI   5
STORM LAKE *   CLOUDY    21  14  73 NW29G37   29.62R WCI   3
$$

IAZ055>058-069>071-079>083-090>094-241800-
   SOUTHWEST IOWA

CITY           SKY/WX    TMP DP  RH WIND       PRES   REMARKS
ATLANTIC *     CLOUDY    27  19  74 NW21G31   29.67R WCI  13
AUDUBON *      CLOUDY    25  16  68 NW15G22   29.65R WCI  12
CLARINDA *     CLOUDY    30  21  69 NW22G33   29.72R WCI  17
COUNCIL BLFS * CLOUDY    28  21  74 NW24G31   29.69R WCI  14
CRESTON *      CLOUDY    27  19  74 NW29G36   29.64R WCI  11
HARLAN  *      CLOUDY    27  19  74 NW23G33   29.70R WCI  12
LAMONI         CLOUDY    29  20  69 W24       29.64R WCI  15
RED OAK *      CLOUDY    28  21  74 NW20G30   29.71R WCI  15
SHENANDOAH *   CLOUDY    32  21  64 NW17G25   29.73R WCI  21
$$

IAZ047>049-059>061-072>074-084-241800-
   CENTRAL IOWA

CITY           SKY/WX    TMP DP  RH WIND       PRES   REMARKS
AMES           CLOUDY    24  16  71 NW22G38   29.58R WCI   9
ANKENY *       CLOUDY    25  18  74 W22G32    29.59R WCI  10
CHARITON *     CLOUDY    28  21  74 NW17G25   29.61R WCI  16
DES MOINES     FLURRIES  27  17  66 NW23G33   29.60R WCI  12
GRINNELL*      CLOUDY    25  20  83 W25G32    29.54R WCI   9
KNOXVILLE *    CLOUDY    27  19  74 W24       29.58R WCI  12
MARSHALLTOWN   CLOUDY    24  20  84 W24G32    29.53R WCI   8
PELLA *        PTSUNNY   27  20  75 NW23G29   29.59R WCI  12
PERRY *        CLOUDY    25  19  77 NW20G31   29.62R WCI  11
$$

IAZ004>006-015-016-023>025-035-036-241800-
   NORTH CENTRAL IOWA

CITY           SKY/WX    TMP DP  RH WIND       PRES   REMARKS
ALGONA *       FLURRIES  21  14  73 NW28G35   29.57R WCI   3
CLARION *      LGT SNOW  21  18  86 NW23G31   29.55R WCI   5
ESTHERVILLE    FLURRIES  18  12  77 NW24G37   29.58R WCI   0
FORT DODGE *   CLOUDY    23  12  63 NW14G25   29.59R WCI  11
MASON CITY     FLURRIES  19  14  81 NW28G40   29.50R WCI   1
FOREST CITY *  LGT SNOW  19  18  93 NW23G31   29.51R WCI   2
IOWA FALLS *   CLOUDY    22  18  83 W24G37    29.52R WCI   6
$$

IAZ007>011-017>019-026>030-037>042-050>054-066-241800-
   NORTHEAST IOWA

CITY           SKY/WX    TMP DP  RH WIND       PRES   REMARKS
CEDAR RAPIDS   FRZ RAIN  25  23  92 W25G38    29.47R FOG     WCI   9
CHARLES CITY * CLOUDY    21  16  79 NW28G38   29.45R HAZE    WCI   3
CLINTON *      CLOUDY    28  23  80 W28       29.42R WCI  13
DECORAH *      CLOUDY    23  19  86 NW13G30   29.36R WCI  11
DUBUQUE        LGT SNOW  26  23  88 W28G35    29.35R FOG     WCI  10
MONTICELLO *   CLOUDY    27  23  86 W23       29.41R WCI  12
OELWEIN *      CLOUDY    23  19  86 W31G37    29.42R WCI   5
WATERLOO       CLOUDY    22  18  85 NW22G35   29.47R WCI   6
$$

IAZ064-065-067-068-078-241800-
   EAST CENTRAL IOWA

CITY           SKY/WX    TMP DP  RH WIND       PRES   REMARKS
DAVENPORT      MIX PCPN  28  23  81 W31G39    29.44R WCI  12
IOWA CITY      LGT SNOW  27  24  89 W25G33    29.51R FOG     WCI  12
MT. PLEASANT * CLOUDY    28  24  82 W21G28    29.55R WCI  15
MUSCATINE *    CLOUDY    30  25  80 W17G28    29.51R WCI  18
QUAD CITIES    CLOUDY    30  24  78 W26G37    29.45R WCI  16
$$

IAZ062-063-075>077-085>089-095>099-241800-
   SOUTHEAST IOWA

CITY           SKY/WX    TMP DP  RH WIND       PRES   REMARKS
BURLINGTON     CLOUDY    30  26  85 W20G28    29.53R WCI  17
FAIRFIELD *    MIX PCPN  27  21  80 W21G33    29.55R WCI  13
FORT MADISON * CLOUDY    32  27  80 W21G26    29.56R WCI  20
KEOKUK *       CLOUDY    30  27  86 W18G33    29.57R WCI  18
OSKALOOSA *    CLOUDY    26  21  80 W25       29.57R WCI  11
CENTERVILLE *  CLOUDY    27  23  86 W21       29.63R WCI  13
OTTUMWA        CLOUDY    27  20  75 W23G32    29.57R WCI  12
WASHINGTON *   CLOUDY    28  28 100 W23G31    29.53R FOG     WCI  14
$$

ABBREVIATIONS USED IN REMARKS
   TC - TEMPERATURES IN CELSIUS
  WCI - WIND CHILL INDEX
   HX - HEAT INDEX
  VSB - VISIBILITY
$$




USA.gov is the U.S. government's official web portal to all federal, state and local government web resources and services.